Hourly Weather Rudawka

Today, 21 April, Wednesday

Time Temperature Precipitation Wind Pressure Humidity
00:00 +8°C° 0 mm 1 mps 747 mmHg 81%
01:00 +8°C° 0 mm 1 mps 747 mmHg 82%
02:00 +6°C° 0 mm 2 mps 747 mmHg 83%
03:00 +6°C° 0 mm 2 mps 747 mmHg 84%
04:00 +6°C° 0 mm 2 mps 746 mmHg 85%
05:00 +6°C° 0 mm 2 mps 746 mmHg 86%
06:00 +7°C° 0 mm 3 mps 746 mmHg 79%
07:00 +8°C° 0 mm 3 mps 746 mmHg 72%
08:00 +9°C° 0 mm 3 mps 746 mmHg 65%
09:00 +11°C° 0 mm 3 mps 746 mmHg 58%
10:00 +12°C° 0 mm 3 mps 746 mmHg 51%
11:00 +14°C° 0 mm 3 mps 746 mmHg 44%
12:00 +14°C° 0 mm 4 mps 746 mmHg 42%
13:00 +15°C° 0 mm 4 mps 745 mmHg 40%
14:00 +15°C° 0 mm 4 mps 745 mmHg 38%
15:00 +15°C° 0 mm 4 mps 745 mmHg 39%
16:00 +15°C° 0 mm 4 mps 745 mmHg 41%
17:00 +14°C° 0 mm 4 mps 745 mmHg 42%
18:00 +13°C° 0 mm 3 mps 745 mmHg 50%
19:00 +12°C° 0 mm 2 mps 745 mmHg 57%
20:00 +9°C° 0 mm 2 mps 745 mmHg 65%
21:00 +9°C° 0 mm 2 mps 745 mmHg 67%
22:00 +9°C° 0 mm 1 mps 745 mmHg 69%
23:00 +9°C° 0 mm 1 mps 745 mmHg 71%

Tomorrow, 22 April, Thursday

Time Temperature Precipitation Wind Pressure Humidity
00:00 +8°C° 0 mm 1 mps 745 mmHg 74%
01:00 +8°C° 0 mm 1 mps 745 mmHg 77%
02:00 +7°C° 0 mm 1 mps 745 mmHg 81%
03:00 +7°C° 0.1 mm 1 mps 745 mmHg 84%
04:00 +5°C° 0.1 mm 2 mps 745 mmHg 88%
05:00 +5°C° 0.1 mm 2 mps 745 mmHg 92%
06:00 +4°C° 0.2 mm 3 mps 746 mmHg 89%
07:00 +4°C° 0.2 mm 3 mps 746 mmHg 85%
08:00 +4°C° 0.2 mm 4 mps 746 mmHg 82%
09:00 +5°C° 0 mm 5 mps 746 mmHg 71%
10:00 +6°C° 0 mm 5 mps 746 mmHg 59%
11:00 +7°C° 0 mm 6 mps 746 mmHg 48%
12:00 +7°C° 0 mm 6 mps 746 mmHg 47%
13:00 +8°C° 0 mm 6 mps 746 mmHg 46%
14:00 +8°C° 0 mm 7 mps 746 mmHg 44%
15:00 +8°C° 0 mm 7 mps 747 mmHg 49%
16:00 +6°C° 0 mm 7 mps 747 mmHg 53%
17:00 +6°C° 0 mm 7 mps 747 mmHg 57%
18:00 +5°C° 0.2 mm 6 mps 747 mmHg 64%
19:00 +3°C° 0.2 mm 6 mps 747 mmHg 70%
20:00 +2°C° 0.2 mm 5 mps 747 mmHg 77%
21:00 +2°C° 0.1 mm 5 mps 747 mmHg 79%
22:00 +1°C° 0.1 mm 5 mps 747 mmHg 81%
23:00 +1°C° 0.1 mm 5 mps 747 mmHg 82%

Day after tomorrow, 23 April, Friday

Time Temperature Precipitation Wind Pressure Humidity
00:00 +1°C° 0 mm 5 mps 747 mmHg 85%
01:00 0°C° 0 mm 5 mps 747 mmHg 87%
02:00 0°C° 0 mm 5 mps 748 mmHg 90%
03:00 0°C° 0 mm 5 mps 748 mmHg 91%
04:00 0°C° 0 mm 5 mps 748 mmHg 92%
05:00 0°C° 0 mm 5 mps 748 mmHg 93%
06:00 0°C° 0.1 mm 5 mps 748 mmHg 89%
07:00 +1°C° 0.1 mm 5 mps 749 mmHg 85%
08:00 +1°C° 0.1 mm 5 mps 749 mmHg 81%
09:00 +2°C° 0.1 mm 5 mps 749 mmHg 70%
10:00 +5°C° 0.1 mm 5 mps 749 mmHg 59%
11:00 +6°C° 0.1 mm 5 mps 749 mmHg 48%
12:00 +5°C° 0.2 mm 6 mps 749 mmHg 49%
13:00 +5°C° 0.2 mm 6 mps 750 mmHg 51%
14:00 +5°C° 0.2 mm 6 mps 750 mmHg 52%
15:00 +5°C° 0.1 mm 6 mps 750 mmHg 50%
16:00 +6°C° 0.1 mm 5 mps 750 mmHg 49%
17:00 +6°C° 0.1 mm 5 mps 750 mmHg 48%
18:00 +4°C° 0 mm 4 mps 750 mmHg 54%
19:00 +3°C° 0 mm 4 mps 750 mmHg 60%
20:00 +1°C° 0 mm 3 mps 751 mmHg 66%
21:00 0°C° 0 mm 3 mps 751 mmHg 71%
22:00 0°C° 0 mm 3 mps 751 mmHg 76%
23:00 -1°C° 0 mm 3 mps 751 mmHg 81%

24 April, Saturday

Time Temperature Precipitation Wind Pressure Humidity
00:00 -1°C° 0 mm 3 mps 751 mmHg 82%
01:00 -2°C° 0 mm 3 mps 751 mmHg 83%
02:00 -3°C° 0 mm 4 mps 751 mmHg 84%
03:00 -2°C° 0 mm 4 mps 751 mmHg 85%
04:00 -2°C° 0 mm 4 mps 751 mmHg 86%
05:00 -2°C° 0 mm 4 mps 751 mmHg 87%
06:00 -1°C° 0.1 mm 4 mps 751 mmHg 85%
07:00 0°C° 0.1 mm 5 mps 751 mmHg 83%
08:00 +1°C° 0.1 mm 5 mps 751 mmHg 81%
09:00 +1°C° 0.2 mm 5 mps 751 mmHg 76%
10:00 +2°C° 0.2 mm 5 mps 751 mmHg 70%
11:00 +3°C° 0.2 mm 6 mps 751 mmHg 64%
12:00 +4°C° 0.3 mm 6 mps 751 mmHg 63%
13:00 +4°C° 0.3 mm 6 mps 751 mmHg 61%
14:00 +4°C° 0.3 mm 6 mps 751 mmHg 60%
15:00 +4°C° 0.2 mm 6 mps 751 mmHg 61%
16:00 +4°C° 0.2 mm 6 mps 751 mmHg 61%
17:00 +4°C° 0.2 mm 6 mps 752 mmHg 62%
18:00 +2°C° 0 mm 6 mps 752 mmHg 66%
19:00 +1°C° 0 mm 5 mps 752 mmHg 70%
20:00 0°C° 0 mm 5 mps 752 mmHg 74%
21:00 -1°C° 0 mm 5 mps 752 mmHg 78%
22:00 -2°C° 0 mm 5 mps 752 mmHg 82%
23:00 -2°C° 0 mm 5 mps 752 mmHg 86%

25 April, Sunday

Time Temperature Precipitation Wind Pressure Humidity
00:00 -2°C° 0.1 mm 5 mps 752 mmHg 88%
01:00 -1°C° 0.1 mm 5 mps 752 mmHg 89%
02:00 -2°C° 0.1 mm 6 mps 752 mmHg 90%
03:00 -2°C° 0.1 mm 6 mps 752 mmHg 88%
04:00 -2°C° 0.1 mm 6 mps 752 mmHg 86%
05:00 -2°C° 0.1 mm 6 mps 752 mmHg 84%
06:00 -2°C° 0 mm 6 mps 752 mmHg 80%
07:00 -1°C° 0 mm 6 mps 752 mmHg 76%
08:00 +1°C° 0 mm 6 mps 752 mmHg 72%
09:00 0°C° 0.2 mm 7 mps 752 mmHg 68%
10:00 +2°C° 0.2 mm 7 mps 752 mmHg 63%
11:00 +2°C° 0.2 mm 8 mps 752 mmHg 58%
12:00 +2°C° 0.2 mm 8 mps 751 mmHg 59%
13:00 +2°C° 0.2 mm 8 mps 751 mmHg 60%
14:00 +2°C° 0.2 mm 8 mps 751 mmHg 62%
15:00 +2°C° 0.2 mm 8 mps 751 mmHg 63%
16:00 +2°C° 0.2 mm 8 mps 751 mmHg 64%
17:00 +3°C° 0.2 mm 7 mps 751 mmHg 65%
18:00 +2°C° 0 mm 7 mps 752 mmHg 71%
19:00 -1°C° 0 mm 6 mps 752 mmHg 76%
20:00 -2°C° 0 mm 6 mps 752 mmHg 81%
21:00 -2°C° 0 mm 6 mps 752 mmHg 79%
22:00 -2°C° 0 mm 6 mps 752 mmHg 77%
23:00 -2°C° 0 mm 6 mps 752 mmHg 76%

26 April, Monday

Time Temperature Precipitation Wind Pressure Humidity
00:00 -2°C° 0 mm 6 mps 751 mmHg 75%
01:00 -2°C° 0 mm 6 mps 751 mmHg 74%
02:00 -2°C° 0 mm 7 mps 751 mmHg 73%
03:00 -2°C° 0 mm 6 mps 751 mmHg 73%
04:00 -2°C° 0 mm 6 mps 751 mmHg 73%
05:00 -2°C° 0 mm 6 mps 751 mmHg 74%
06:00 -1°C° 0 mm 6 mps 751 mmHg 70%
07:00 +1°C° 0 mm 6 mps 751 mmHg 66%
08:00 +2°C° 0 mm 6 mps 751 mmHg 63%
09:00 +3°C° 0 mm 6 mps 751 mmHg 57%
10:00 +5°C° 0 mm 7 mps 752 mmHg 51%
11:00 +6°C° 0 mm 7 mps 752 mmHg 45%
12:00 +8°C° 0 mm 7 mps 752 mmHg 43%
13:00 +8°C° 0 mm 7 mps 751 mmHg 41%
14:00 +9°C° 0 mm 7 mps 751 mmHg 39%
15:00 +9°C° 0 mm 6 mps 751 mmHg 41%
16:00 +9°C° 0 mm 6 mps 751 mmHg 42%
17:00 +8°C° 0 mm 6 mps 751 mmHg 44%
18:00 +7°C° 0 mm 5 mps 752 mmHg 51%
19:00 +5°C° 0 mm 4 mps 752 mmHg 58%
20:00 +3°C° 0 mm 3 mps 752 mmHg 65%
21:00 +3°C° 0 mm 2 mps 752 mmHg 68%
22:00 +2°C° 0 mm 2 mps 752 mmHg 71%
23:00 +1°C° 0 mm 2 mps 752 mmHg 75%
Show more